{"data":{"norad_id":53754,"intl_designator":"2022-107BG","name":"SHERPA-LTC2","alt_names":[],"object_type":"PAYLOAD","status":"ACTIVE","operator":null,"country":"US","launch_date":"2022-09-05","launch_site_code":"AFETR","launch_vehicle":null,"mission":null,"orbit_class":"UNKNOWN","rcs_meters":null,"size_class":null,"mass_kg":null,"dimensions":null,"purposes":[],"wikipedia_slug":null,"has_3d_model":false,"image_url":null,"decayed_at":null,"tle_current":{"epoch":"2026-05-25T04:46:33.000384Z","epoch_age_seconds":71990,"freshness":"FRESH","line1":"1 53754U 22107BG  26145.19899306  .00008025  00000+0  40234-3 0  9999","line2":"2 53754  53.2342 317.6278 0396785 161.7206 199.8507 14.69329473199163","mean_motion":14.69329473,"eccentricity":0.0396785,"inclination_deg":53.2342,"raan_deg":317.6278,"arg_perigee_deg":161.7206,"mean_anomaly_deg":199.8507,"bstar":0.00040234,"rev_number":19916,"period_min":98.003887246601,"perigee_km":383.81940786305,"apogee_km":942.59953999462,"semimajor_km":7041.3464739288,"source":"CELESTRAK","updated_at":"2026-05-25T13:37:58.369319Z"}}}